Location: Newark
(34.1333°N, 7.9667°W)
Time: 09:50:01
(UTC+00:00)

S-56A Canister/Altair - Pass Details

Date: 07 December 2021
Orbit: 634 x 2499 km, 38.9° (Epoch: 28 January)

Event Time Altitude Azimuth Distance (km) Brightness Sun altitude
Exits shadow 05:53:14 23° 240° (WSW) 1,476 8.6 -18.4°
Maximum altitude 05:54:19 25° 219° (SW) 1,364 8.6 -18.2°
Drops below altitude 10° 05:58:02 10° 162° (SSE) 2,019 10.1 -17.5°
Sets 06:00:32 0° 149° (SSE) 2,905 11.3 -17.0°
